Date String (YYYY-MM-DD hh:mm:ss) UTC,Instrument flags,Ambient pressure (hPa),Sample flow (lpm),Bypass flow (lpm),Sample temperature (°C),Ambient temperature (°C),ASC tube jacket temperature (°C),LED temperature (°C),Box temperature (°C),Sample RH (%),Span deviation,Mass concentration (μg/m³),Mass concentration (μg/m³),Mass concentration (μg/m³)
DateTimeUTC,F1_M11,P_M11,Q1_M11,Q2_M11,T1_M11,T2_M11,T3_M11,T4_M11,T5_M11,U1_M11,ZSPAN_M11,X0_M11,X2_M11,X1_M11
2023-01-30 12:00:00,,0824.4,5.00,0.00,22.3,20.8,00.0,31.2,23.8,03.6,0000.6,0008.63,0005.01,0004.35
2023-01-30 12:01:00,,0824.6,5.00,0.00,22.2,20.4,00.0,31.2,23.7,03.6,0000.9,0008.52,0004.96,0004.33
2023-01-30 12:02:00,,0824.5,5.01,0.00,22.1,20.1,00.0,31.2,23.5,03.6,0001.3,0008.56,0004.97,0004.34
2023-01-30 12:03:00,,0824.5,5.01,0.00,22.1,20.9,00.0,31.1,23.7,03.6,0001.1,0008.60,0004.99,0004.35
2023-01-30 12:04:00,,0824.4,5.00,0.00,22.2,22.0,00.0,31.1,24.0,03.6,0001.1,0008.71,0005.03,0004.36
2023-01-30 12:05:00,,0824.4,5.00,0.00,22.3,22.8,00.0,31.1,24.3,03.6,0001.5,0008.77,0005.06,0004.36
2023-01-30 12:06:00,,0824.5,5.00,0.00,22.4,22.5,00.0,31.1,24.2,03.6,0001.4,0008.84,0005.11,0004.36
2023-01-30 12:07:00,,0824.4,5.02,0.00,22.4,21.6,00.0,31.2,24.0,03.6,0002.0,0008.84,0005.11,0004.38
2023-01-30 12:08:00,,0824.4,4.98,0.00,22.3,20.8,00.0,31.2,23.8,03.6,0002.1,0008.86,0005.12,0004.40
2023-01-30 12:09:00,,0824.3,5.01,0.00,22.2,20.2,00.0,31.1,23.6,03.6,0002.0,0008.89,0005.13,0004.41
2023-01-30 12:10:00,,0824.3,4.97,0.00,22.1,19.7,00.0,31.1,23.4,03.6,0002.0,0008.87,0005.10,0004.41
2023-01-30 12:11:00,,0824.4,5.01,0.00,22.0,19.9,00.0,31.0,23.4,03.7,0001.7,0008.84,0005.10,0004.41
2023-01-30 12:12:00,,0824.5,5.00,0.00,22.1,21.2,00.0,31.0,23.7,03.6,0001.9,0008.79,0005.08,0004.39
2023-01-30 12:13:00,,0824.5,5.00,0.00,22.2,22.3,00.0,31.0,24.0,03.6,0001.8,0008.72,0005.04,0004.37
2023-01-30 12:14:00,,0824.4,5.01,0.00,22.3,22.8,00.0,31.0,24.2,03.6,0002.2,0008.81,0005.05,0004.35
2023-01-30 12:15:00,,0824.4,4.98,0.00,22.3,22.1,00.0,31.1,24.1,03.6,0002.5,0008.75,0005.02,0004.32
2023-01-30 12:16:00,,0824.3,5.00,0.00,22.3,21.3,00.0,31.1,23.9,03.6,0002.1,0008.80,0005.01,0004.30
2023-01-30 12:17:00,,0824.3,4.98,0.00,22.2,20.5,00.0,31.1,23.6,03.6,0002.2,0008.67,0004.94,0004.29
2023-01-30 12:18:00,,0824.2,5.03,0.00,22.1,19.9,00.0,31.0,23.4,03.6,0001.8,0008.47,0004.89,0004.26
2023-01-30 12:19:00,,0824.3,5.01,0.00,22.0,19.6,00.0,31.0,23.3,03.7,0001.6,0008.39,0004.85,0004.24
2023-01-30 12:20:00,,0824.3,5.02,0.00,21.9,19.8,00.0,31.0,23.3,03.7,0001.4,0008.37,0004.84,0004.24
2023-01-30 12:21:00,,0824.3,4.99,0.00,22.0,21.1,00.0,30.9,23.6,03.7,0001.8,0008.52,0004.85,0004.25
2023-01-30 12:22:00,,0824.3,4.99,0.00,22.1,22.1,00.0,30.9,23.9,03.7,0001.8,0009.01,0004.90,0004.27
2023-01-30 12:23:00,,0824.3,5.00,0.00,22.2,22.7,00.0,30.9,24.1,03.7,0001.6,0009.17,0004.99,0004.32
2023-01-30 12:24:00,,0824.2,4.99,0.00,22.2,22.0,00.0,31.0,24.0,03.6,0001.4,0009.18,0005.01,0004.34
2023-01-30 12:25:00,,0824.4,5.01,0.00,22.1,21.1,00.0,31.0,23.7,03.7,0001.4,0009.06,0004.98,0004.34
2023-01-30 12:26:00,,0824.3,5.00,0.00,22.1,20.4,00.0,31.0,23.5,03.7,0001.1,0009.04,0004.98,0004.35
2023-01-30 12:27:00,,0824.3,5.00,0.00,22.0,20.0,00.0,30.9,23.4,03.7,0001.3,0009.04,0004.98,0004.36
2023-01-30 12:28:00,,0824.3,4.98,0.00,21.9,19.7,00.0,30.9,23.3,03.7,0001.5,0009.08,0005.02,0004.39
2023-01-30 12:29:00,,0824.2,5.01,0.00,21.9,20.6,00.0,30.9,23.5,03.7,0001.8,0009.19,0005.08,0004.43
2023-01-30 12:30:00,,0824.3,4.99,0.00,22.0,21.7,00.0,30.8,23.8,03.7,0001.9,0009.46,0005.18,0004.48
2023-01-30 12:31:00,,0824.4,4.99,0.00,22.1,22.6,00.0,30.9,24.1,03.7,0002.3,0009.54,0005.20,0004.49
2023-01-30 12:32:00,,0824.4,5.00,0.00,22.2,22.6,00.0,30.9,24.2,03.7,0002.4,0009.76,0005.30,0004.52
2023-01-30 12:33:00,,0824.2,4.99,0.00,22.2,21.8,00.0,30.9,24.0,03.7,0002.8,0009.32,0005.34,0004.54
2023-01-30 12:34:00,,0824.2,5.00,0.00,22.2,21.2,00.0,31.0,23.8,03.7,0003.1,0009.23,0005.32,0004.53
2023-01-30 12:35:00,,0824.3,4.99,0.00,22.1,20.8,00.0,31.0,23.7,03.7,0003.8,0009.30,0005.34,0004.54
2023-01-30 12:36:00,,0824.3,5.01,0.00,22.0,20.3,00.0,30.9,23.5,03.7,0004.1,0009.39,0005.39,0004.57
2023-01-30 12:37:00,,0824.3,5.01,0.00,22.0,19.9,00.0,30.9,23.4,03.7,0004.1,0009.48,0005.44,0004.60
2023-01-30 12:38:00,,0824.3,4.97,0.00,21.9,19.9,00.0,30.9,23.3,03.7,0004.1,0009.57,0005.49,0004.62
2023-01-30 12:39:00,,0824.4,5.01,0.00,22.0,21.1,00.0,30.8,23.6,03.7,0003.8,0009.52,0005.49,0004.64
2023-01-30 12:40:00,,0824.5,4.98,0.00,22.1,22.1,00.0,30.8,23.9,03.7,0003.6,0009.54,0005.50,0004.65
2023-01-30 12:41:00,,0824.4,4.99,0.00,22.2,22.7,00.0,30.9,24.1,03.7,0003.6,0009.46,0005.49,0004.65
2023-01-30 12:42:00,,0824.3,5.00,0.00,22.2,22.3,00.0,30.9,24.1,03.7,0003.6,0009.35,0005.49,0004.67
2023-01-30 12:43:00,,0824.3,5.01,0.00,22.2,21.5,00.0,30.9,23.9,03.7,0003.6,0009.24,0005.47,0004.68
2023-01-30 12:44:00,,0824.3,4.99,0.00,22.1,20.9,00.0,30.9,23.7,03.7,0003.2,0009.18,0005.46,0004.70
2023-01-30 12:45:00,,0824.3,5.00,0.00,22.1,20.5,00.0,30.9,23.6,03.7,0003.0,0009.24,0005.47,0004.72
2023-01-30 12:46:00,,0824.3,5.00,0.00,22.0,20.3,00.0,30.9,23.5,03.7,0002.6,0009.13,0005.45,0004.73
2023-01-30 12:47:00,,0824.3,5.00,0.00,22.0,20.1,00.0,30.9,23.4,03.8,0002.3,0009.07,0005.44,0004.75
2023-01-30 12:48:00,,0824.5,5.01,0.00,21.9,20.6,00.0,30.9,23.5,03.8,0002.1,0009.02,0005.44,0004.77
2023-01-30 12:49:00,,0824.5,5.01,0.00,22.0,21.7,00.0,30.8,23.8,03.7,0002.2,0008.96,0005.42,0004.79
2023-01-30 12:50:00,,0824.4,5.00,0.00,22.2,22.5,00.0,30.8,24.1,03.7,0002.3,0009.03,0005.45,0004.80
2023-01-30 12:51:00,,0824.3,5.00,0.00,22.3,22.8,00.0,30.9,24.2,03.7,0001.9,0009.06,0005.46,0004.80
2023-01-30 12:52:00,,0824.3,4.99,0.00,22.3,22.1,00.0,30.9,24.1,03.7,0002.7,0009.05,0005.47,0004.81
2023-01-30 12:53:00,,0824.3,5.01,0.00,22.2,21.4,00.0,31.0,23.9,03.7,0002.6,0009.12,0005.50,0004.83
2023-01-30 12:54:00,,0824.4,4.98,0.00,22.1,20.6,00.0,31.0,23.6,03.7,0002.3,0009.21,0005.52,0004.83
2023-01-30 12:55:00,,0824.2,5.04,0.00,22.1,20.2,00.0,30.9,23.5,03.7,0002.4,0009.28,0005.53,0004.84
2023-01-30 12:56:00,,0824.3,4.99,0.00,22.0,19.9,00.0,30.9,23.4,03.8,0002.5,0009.24,0005.54,0004.84
2023-01-30 12:57:00,,0824.3,5.00,0.00,21.9,20.0,00.0,30.9,23.4,03.8,0002.1,0009.33,0005.57,0004.85
2023-01-30 12:58:00,,0824.3,5.01,0.00,22.0,20.9,00.0,30.9,23.6,03.7,0001.6,0009.41,0005.60,0004.86
2023-01-30 12:59:00,,0824.3,4.98,0.00,22.1,22.0,00.0,30.8,23.9,03.7,0001.7,0009.43,0005.61,0004.87
